2007-01-15T12:00:00Z,18.328806,0.26756
2007-02-15T12:00:00Z,17.869451,0.128258
2007-03-15T12:00:00Z,19.330005,0.064556
2007-04-15T12:00:00Z,21.502957,0.059996
2007-05-15T12:00:00Z,25.188105,0.029641
2007-06-15T12:00:00Z,28.161309,0.126127
2007-07-15T12:00:00Z,28.416181,0.065001
2007-08-15T12:00:00Z,30.250991,0.125531
2007-09-15T12:00:00Z,29.417176,0.115884
2007-10-15T12:00:00Z,27.030775,0.111576
2007-11-15T12:00:00Z,22.365513,0.180194
2007-12-15T12:00:00Z,19.430459,0.246761
2008-01-15T12:00:00Z,18.050306,0.285353
2008-02-15T12:00:00Z,18.028068,0.098644
2008-03-15T12:00:00Z,18.696588,0.175835
2008-04-15T12:00:00Z,22.222067,0.123965
2008-05-15T12:00:00Z,25.85549,0.032229
2008-06-15T12:00:00Z,28.920879,0.177799
2008-07-15T12:00:00Z,28.869505,0.203604
2008-08-15T12:00:00Z,28.826073,0.18141
2008-09-15T12:00:00Z,27.985677,0.044012
2008-10-15T12:00:00Z,25.081148,0.161861
2008-11-15T12:00:00Z,21.834514,0.197879
2008-12-15T12:00:00Z,20.222565,0.289555
2009-01-15T12:00:00Z,19.057322,0.321781
2009-02-15T12:00:00Z,18.207877,0.205841
2009-03-15T12:00:00Z,19.044664,0.128173
2009-04-15T12:00:00Z,21.47312,0.10453
2009-05-15T12:00:00Z,26.024031,0.045817
2009-06-15T12:00:00Z,28.565851,0.161871
2009-07-15T12:00:00Z,28.504205,0.172918
2009-08-15T12:00:00Z,29.859645,0.184489
2009-09-15T12:00:00Z,28.948091,0.096331
2009-10-15T12:00:00Z,26.297469,0.147797
2009-11-15T12:00:00Z,21.172869,0.172108
2009-12-15T12:00:00Z,18.848871,0.293545
2010-01-15T12:00:00Z,15.3416,0.245696
2010-02-15T12:00:00Z,15.007721,0.162737
2010-03-15T12:00:00Z,16.434444,0.059841
2010-04-15T12:00:00Z,21.543481,0.058466
2010-05-15T12:00:00Z,26.225905,0.048095
2010-06-15T12:00:00Z,29.409522,0.168321
2010-07-15T12:00:00Z,29.823947,0.088748
2010-08-15T12:00:00Z,30.5633,0.237974
2010-09-15T12:00:00Z,29.273169,0.065481
2010-10-15T12:00:00Z,26.465693,0.102114
2010-11-15T12:00:00Z,22.160356,0.15941
2010-12-15T12:00:00Z,18.779575,0.221525
2011-01-15T12:00:00Z,17.655447,0.322457
2011-02-15T12:00:00Z,16.910498,0.270503
2011-03-15T12:00:00Z,19.447369,0.055543
2011-04-15T12:00:00Z,22.959333,0.158044
2011-05-15T12:00:00Z,25.395562,0.09482
2011-06-15T12:00:00Z,28.773288,0.184582
2011-07-15T12:00:00Z,30.094091,0.239217
2011-08-15T12:00:00Z,30.357039,0.269507
2011-09-15T12:00:00Z,29.236272,0.106006
2011-10-15T12:00:00Z,25.889091,0.110049
2011-11-15T12:00:00Z,21.800712,0.207223
2011-12-15T12:00:00Z,19.163127,0.312089
2012-01-15T12:00:00Z,17.53016,0.206286
2012-02-15T12:00:00Z,17.18514,0.197293
2012-03-15T12:00:00Z,20.092901,0.073663
2012-04-15T12:00:00Z,24.236561,0.045725
2012-05-15T12:00:00Z,26.478775,0.067018
2012-06-15T12:00:00Z,29.055552,0.040283
2012-07-15T12:00:00Z,29.476957,0.076519
2012-08-15T12:00:00Z,29.872294,0.216056
2012-09-15T12:00:00Z,28.601574,0.073681
2012-10-15T12:00:00Z,26.007626,0.15555
2012-11-15T12:00:00Z,21.982211,0.20916
2012-12-15T12:00:00Z,19.686723,0.207028
2013-01-15T12:00:00Z,18.280204,0.293607
2013-02-15T12:00:00Z,17.038899,0.175886
2013-03-15T12:00:00Z,17.721753,0.199533
2013-04-15T12:00:00Z,20.34528,0.079988
2013-05-15T12:00:00Z,23.714539,0.034208
2013-06-15T12:00:00Z,28.731637,0.220381
2013-07-15T12:00:00Z,28.757733,0.063361
2013-08-15T12:00:00Z,29.003209,0.117736
2013-09-15T12:00:00Z,29.355826,0.030906
2013-10-15T12:00:00Z,26.370672,0.110881
2013-11-15T12:00:00Z,22.563523,0.150182
2013-12-15T12:00:00Z,19.182483,0.280756
2014-01-15T12:00:00Z,17.23568,0.23064
2014-02-15T12:00:00Z,16.858715,0.14492
2014-03-15T12:00:00Z,16.880441,0.070888
2014-04-15T12:00:00Z,20.357864,0.063975
2014-05-15T12:00:00Z,23.55845,0.045041
2014-06-15T12:00:00Z,27.964912,0.024111
2014-07-15T12:00:00Z,28.863426,0.169324
2014-08-15T12:00:00Z,28.986433,0.184484
2014-09-15T12:00:00Z,28.919358,0.076334
2014-10-15T12:00:00Z,26.362994,0.127785
2014-11-15T12:00:00Z,21.659149,0.22961
2014-12-15T12:00:00Z,18.039052,0.234939
2015-01-15T12:00:00Z,18.19707,0.216733
2015-02-15T12:00:00Z,16.800782,0.196558
2015-03-15T12:00:00Z,17.933398,0.152016
2015-04-15T12:00:00Z,22.095569,0.055965
2015-05-15T12:00:00Z,25.567451,0.036505
2015-06-15T12:00:00Z,29.238608,0.075582
2015-07-15T12:00:00Z,27.707998,0.098731
2015-08-15T12:00:00Z,29.442837,0.119877
2015-09-15T12:00:00Z,28.898565,0.052111
2015-10-15T12:00:00Z,26.139049,0.193646
2015-11-15T12:00:00Z,22.742467,0.149601
2015-12-15T12:00:00Z,19.163537,0.145197
2016-01-15T12:00:00Z,15.914137,0.363313
2016-02-15T12:00:00Z,16.808631,0.207188
2016-03-15T12:00:00Z,19.347981,0.114427
2016-04-15T12:00:00Z,22.446111,0.051343
2016-05-15T12:00:00Z,25.879891,0.081181
2016-06-15T12:00:00Z,28.726669,0.095168
2016-07-15T12:00:00Z,29.017466,0.170911
2016-08-15T12:00:00Z,29.86402,0.089104
2016-09-15T12:00:00Z,30.134769,0.065802
2016-10-15T12:00:00Z,27.001538,0.106251
2016-11-15T12:00:00Z,23.423425,0.168467
2016-12-15T12:00:00Z,20.104438,0.232371
2017-01-15T12:00:00Z,17.967446,0.240173
2017-02-15T12:00:00Z,18.470058,0.173602
2017-03-15T12:00:00Z,20.084037,0.112639
2017-04-15T12:00:00Z,23.369974,0.027512
2017-05-15T12:00:00Z,25.329807,0.01119
2017-06-15T12:00:00Z,28.971018,0.069214
2017-07-15T12:00:00Z,30.058751,0.121794
2017-08-15T12:00:00Z,29.495321,0.138629
2017-09-15T12:00:00Z,28.213716,0.041764
2017-10-15T12:00:00Z,26.742081,0.116383
2017-11-15T12:00:00Z,23.004227,0.174188
2017-12-15T12:00:00Z,18.603002,0.334964
2018-01-15T12:00:00Z,15.566555,0.325633
2018-02-15T12:00:00Z,18.19415,0.229468
2018-03-15T12:00:00Z,20.304359,0.105086
2018-04-15T12:00:00Z,21.836835,0.033461
2018-05-15T12:00:00Z,26.593429,0.09635
2018-06-15T12:00:00Z,28.349534,0.129319
2018-07-15T12:00:00Z,28.290453,0.12961
2018-08-15T12:00:00Z,28.881512,0.104308
2018-09-15T12:00:00Z,29.104602,0.037455
2018-10-15T12:00:00Z,26.45387,0.092956
2018-11-15T12:00:00Z,21.807388,0.279209
2018-12-15T12:00:00Z,17.24254,0.334206
2019-01-15T12:00:00Z,15.432409,0.320864
2019-02-15T12:00:00Z,15.962649,0.217851
2019-03-15T12:00:00Z,18.242837,0.199192
2019-04-15T12:00:00Z,21.546967,0.097997
2019-05-15T12:00:00Z,25.627889,0.031934
2019-06-15T12:00:00Z,29.495399,0.071201
2019-07-15T12:00:00Z,29.337444,0.12815
2019-08-15T12:00:00Z,29.860699,0.149265
2019-09-15T12:00:00Z,29.849942,0.035986
2019-10-15T12:00:00Z,26.563344,0.137498
2019-11-15T12:00:00Z,20.115671,0.345961
2019-12-15T12:00:00Z,17.291168,0.280313
2020-01-15T12:00:00Z,16.836693,0.270801
2020-02-15T12:00:00Z,15.597238,0.334918
2020-03-15T12:00:00Z,20.403745,0.07799
2020-04-15T12:00:00Z,23.410376,0.051932
2020-05-15T12:00:00Z,26.444706,0.157381
2020-06-15T12:00:00Z,28.855321,0.119882
2020-07-15T12:00:00Z,29.624546,0.236059
2020-08-15T12:00:00Z,30.235331,0.182692
2020-09-15T12:00:00Z,28.500649,0.118307
2020-10-15T12:00:00Z,26.15775,0.034356
2020-11-15T12:00:00Z,22.726685,0.126696
2020-12-15T12:00:00Z,18.302459,0.247979
2021-01-15T12:00:00Z,15.100001,0.417163
2021-02-15T12:00:00Z,14.315791,0.316675
2021-03-15T12:00:00Z,17.203419,0.113963
2021-04-15T12:00:00Z,21.774581,0.16731
2021-05-15T12:00:00Z,25.618986,0.128326
2021-06-15T12:00:00Z,29.250053,0.170561
2021-07-15T12:00:00Z,29.76508,0.20592
2021-08-15T12:00:00Z,30.68038,0.120908
2021-09-15T12:00:00Z,29.174335,0.039904
2021-10-15T12:00:00Z,26.651909,0.09115
2021-11-15T12:00:00Z,21.924264,0.257601
2021-12-15T12:00:00Z,20.439678,0.151571
2022-01-15T12:00:00Z,17.497305,0.415177
2022-02-15T12:00:00Z,13.189668,0.325904
2022-03-15T12:00:00Z,16.200112,0.18584
2022-04-15T12:00:00Z,22.226058,0.044965
2022-05-15T12:00:00Z,26.823823,0.108099
2022-06-15T12:00:00Z,28.694024,0.108432
2022-07-15T12:00:00Z,29.732866,0.208736
2022-08-15T12:00:00Z,29.914067,0.082701
2022-09-15T12:00:00Z,29.787132,0.068471
2022-10-15T12:00:00Z,26.153186,0.114543
2022-11-15T12:00:00Z,22.387762,0.140491
2022-12-15T12:00:00Z,17.206078,0.28471
2023-01-15T12:00:00Z,15.76901,0.315834
2023-02-15T12:00:00Z,15.481618,0.201369
2023-03-15T12:00:00Z,21.109701,0.226315
2023-04-15T12:00:00Z,22.680453,0.069681
2023-05-15T12:00:00Z,26.599652,0.131949
2023-06-15T12:00:00Z,29.665347,0.22223
2023-07-15T12:00:00Z,29.727687,0.361299
2023-08-15T12:00:00Z,30.165317,0.305039
2023-09-15T12:00:00Z,30.37582,0.065801
2023-10-15T12:00:00Z,26.552312,0.141283
2023-11-15T12:00:00Z,21.085125,0.267712
2023-12-15T12:00:00Z,18.003155,0.298202
